Time,TemperatureF,DewpointF,PressureIn,WindDirection,WindDirectionDegrees,WindSpeedMPH,WindSpeedGustMPH,Humidity,HourlyPrecipIn,Conditions,Clouds,dailyrainin,SolarRadiationWatts/m^2,SoftwareType,DateUTC
2013-07-08 00:12:00,59.0,46.0,-100.00,WSW,247,10.0,31.0,62,0.00,,,0.00,0.000000,,2013-07-08 06:12:00,
2013-07-08 00:22:00,59.0,46.0,-100.00,WSW,247,10.0,31.0,62,0.00,,,0.00,0.000000,,2013-07-08 06:22:00,
2013-07-08 00:33:00,59.0,46.0,-100.00,WSW,247,10.0,31.0,62,0.00,,,0.00,0.000000,,2013-07-08 06:33:00,
2013-07-08 00:43:00,59.0,46.0,-100.00,WSW,247,10.0,31.0,62,0.00,,,0.00,0.000000,,2013-07-08 06:43:00,
2013-07-08 01:12:00,53.0,49.0,-100.00,SE,138,7.0,26.0,87,0.08,,,0.08,0.000000,,2013-07-08 07:12:00,
2013-07-08 01:22:00,53.0,49.0,-100.00,SE,138,7.0,26.0,87,0.08,,,0.08,0.000000,,2013-07-08 07:22:00,
2013-07-08 01:34:00,53.0,49.0,-100.00,SE,138,7.0,26.0,87,0.08,,,0.08,0.000000,,2013-07-08 07:34:00,
2013-07-08 01:44:00,53.0,49.0,-100.00,SE,138,7.0,26.0,87,0.08,,,0.08,0.000000,,2013-07-08 07:44:00,
2013-07-08 02:12:00,51.0,50.0,-100.00,SSE,155,17.0,26.0,96,0.00,,,0.08,0.000000,,2013-07-08 08:12:00,
2013-07-08 02:22:00,51.0,50.0,-100.00,SSE,155,17.0,26.0,96,0.00,,,0.08,0.000000,,2013-07-08 08:22:00,
2013-07-08 02:33:00,51.0,50.0,-100.00,SSE,155,17.0,26.0,96,0.00,,,0.08,0.000000,,2013-07-08 08:33:00,
2013-07-08 02:42:00,51.0,50.0,-100.00,SSE,155,17.0,26.0,96,0.00,,,0.08,0.000000,,2013-07-08 08:42:00,
2013-07-08 03:11:00,51.0,49.0,-100.00,SE,126,10.0,22.0,94,0.00,,,0.08,0.000000,,2013-07-08 09:11:00,
2013-07-08 03:22:00,51.0,49.0,-100.00,SE,126,10.0,22.0,94,0.00,,,0.08,0.000000,,2013-07-08 09:22:00,
2013-07-08 03:34:00,51.0,49.0,-100.00,SE,126,10.0,22.0,94,0.00,,,0.08,0.000000,,2013-07-08 09:34:00,
2013-07-08 03:43:00,51.0,49.0,-100.00,SE,126,10.0,22.0,94,0.00,,,0.08,0.000000,,2013-07-08 09:43:00,
2013-07-08 04:11:00,51.0,48.0,-100.00,ESE,108,6.0,15.0,89,0.00,,,0.08,0.000000,,2013-07-08 10:11:00,
2013-07-08 04:22:00,51.0,48.0,-100.00,ESE,108,6.0,15.0,89,0.00,,,0.08,0.000000,,2013-07-08 10:22:00,
2013-07-08 04:34:00,51.0,48.0,-100.00,ESE,108,6.0,15.0,89,0.00,,,0.08,0.000000,,2013-07-08 10:34:00,
2013-07-08 04:43:00,51.0,48.0,-100.00,ESE,108,6.0,15.0,89,0.00,,,0.08,0.000000,,2013-07-08 10:43:00,
2013-07-08 05:11:00,51.0,48.0,-100.00,SE,135,5.0,8.0,88,0.00,,,0.08,0.000000,,2013-07-08 11:11:00,
2013-07-08 05:23:00,51.0,48.0,-100.00,SE,135,5.0,8.0,88,0.00,,,0.08,0.000000,,2013-07-08 11:23:00,
2013-07-08 05:33:00,51.0,48.0,-100.00,SE,135,5.0,8.0,88,0.00,,,0.08,0.000000,,2013-07-08 11:33:00,
2013-07-08 05:43:00,51.0,48.0,-100.00,SE,135,5.0,8.0,88,0.00,,,0.08,0.000000,,2013-07-08 11:43:00,
2013-07-08 06:11:00,51.0,48.0,-100.00,SE,137,6.0,7.0,89,0.00,,,0.08,1.000000,,2013-07-08 12:11:00,
2013-07-08 06:22:00,51.0,48.0,-100.00,SE,137,6.0,7.0,89,0.00,,,0.08,1.000000,,2013-07-08 12:22:00,
2013-07-08 06:34:00,51.0,48.0,-100.00,SE,137,6.0,7.0,89,0.00,,,0.08,1.000000,,2013-07-08 12:34:00,
2013-07-08 06:43:00,51.0,48.0,-100.00,SE,137,6.0,7.0,89,0.00,,,0.08,1.000000,,2013-07-08 12:43:00,
2013-07-08 07:22:00,52.0,49.0,-100.00,ESE,113,4.0,11.0,88,0.00,,,0.08,53.000000,,2013-07-08 13:22:00,
2013-07-08 07:33:00,52.0,49.0,-100.00,ESE,113,4.0,11.0,88,0.00,,,0.08,53.000000,,2013-07-08 13:33:00,
2013-07-08 07:42:00,52.0,49.0,-100.00,ESE,113,4.0,11.0,88,0.00,,,0.08,53.000000,,2013-07-08 13:42:00,
2013-07-08 08:34:00,57.0,50.0,-100.00,ESE,109,4.0,10.0,78,0.00,,,0.08,271.000000,,2013-07-08 14:34:00,
2013-07-08 08:43:00,57.0,50.0,-100.00,ESE,109,4.0,10.0,78,0.00,,,0.08,271.000000,,2013-07-08 14:43:00,
2013-07-08 09:22:00,61.0,51.0,-100.00,SSE,155,3.0,8.0,69,0.00,,,0.08,501.000000,,2013-07-08 15:22:00,
2013-07-08 09:33:00,61.0,51.0,-100.00,SSE,155,3.0,8.0,69,0.00,,,0.08,501.000000,,2013-07-08 15:33:00,
2013-07-08 09:43:00,61.0,51.0,-100.00,SSE,155,3.0,8.0,69,0.00,,,0.08,501.000000,,2013-07-08 15:43:00,
2013-07-08 10:22:00,66.0,53.0,-100.00,North,352,2.0,8.0,62,0.00,,,0.08,731.000000,,2013-07-08 16:22:00,
2013-07-08 10:33:00,66.0,53.0,-100.00,North,352,2.0,8.0,62,0.00,,,0.08,731.000000,,2013-07-08 16:33:00,
2013-07-08 10:43:00,66.0,53.0,-100.00,North,352,2.0,8.0,62,0.00,,,0.08,731.000000,,2013-07-08 16:43:00,
2013-07-08 11:37:00,70.0,55.0,-100.00,WSW,252,3.0,8.0,58,0.00,,,0.08,929.000000,,2013-07-08 17:37:00,
2013-07-08 11:45:00,70.0,55.0,-100.00,WSW,252,3.0,8.0,58,0.00,,,0.08,929.000000,,2013-07-08 17:45:00,
2013-07-08 12:41:00,74.0,55.0,-100.00,NNW,346,6.0,10.0,51,0.00,,,0.08,1102.000000,,2013-07-08 18:41:00,
2013-07-08 12:48:00,74.0,55.0,-100.00,NNW,346,6.0,10.0,51,0.00,,,0.08,1102.000000,,2013-07-08 18:48:00,
2013-07-08 13:30:00,74.0,49.0,-100.00,NW,325,10.0,18.0,42,0.00,,,0.08,1020.000000,,2013-07-08 19:30:00,
2013-07-08 13:36:00,74.0,49.0,-100.00,NW,325,10.0,18.0,42,0.00,,,0.08,1020.000000,,2013-07-08 19:36:00,
2013-07-08 14:29:00,80.0,44.0,-100.00,North,351,4.0,16.0,28,0.00,,,0.08,1216.000000,,2013-07-08 20:29:00,
2013-07-08 14:41:00,80.0,44.0,-100.00,North,351,4.0,16.0,28,0.00,,,0.08,1216.000000,,2013-07-08 20:41:00,
2013-07-08 14:49:00,76.0,41.0,-100.00,NNW,328,6.0,18.0,28,0.00,,,0.08,727.000000,,2013-07-08 20:49:00,
2013-07-08 15:31:00,76.0,41.0,-100.00,NNW,328,6.0,18.0,28,0.00,,,0.08,727.000000,,2013-07-08 21:31:00,
2013-07-08 15:39:00,76.0,41.0,-100.00,NNW,328,6.0,18.0,28,0.00,,,0.08,727.000000,,2013-07-08 21:39:00,
2013-07-08 16:21:00,76.0,36.0,-100.00,WNW,282,9.0,30.0,23,0.00,,,0.08,543.000000,,2013-07-08 22:21:00,
2013-07-08 16:41:00,76.0,36.0,-100.00,WNW,282,9.0,30.0,23,0.00,,,0.08,543.000000,,2013-07-08 22:41:00,
2013-07-08 16:49:00,79.0,37.0,-100.00,WNW,294,12.0,26.0,22,0.00,,,0.08,537.000000,,2013-07-08 22:49:00,
2013-07-08 17:19:00,79.0,37.0,-100.00,WNW,294,12.0,26.0,22,0.00,,,0.08,537.000000,,2013-07-08 23:19:00,
2013-07-08 17:30:00,79.0,37.0,-100.00,WNW,294,12.0,26.0,22,0.00,,,0.08,537.000000,,2013-07-08 23:30:00,
2013-07-08 18:30:00,75.0,39.0,-100.00,West,259,4.0,19.0,27,0.00,,,0.08,486.000000,,2013-07-09 00:30:00,
2013-07-08 18:42:00,75.0,39.0,-100.00,West,259,4.0,19.0,27,0.00,,,0.08,486.000000,,2013-07-09 00:42:00,
2013-07-08 19:19:00,72.0,35.0,-100.00,SW,220,7.0,12.0,26,0.00,,,0.08,219.000000,,2013-07-09 01:19:00,
2013-07-08 19:31:00,72.0,35.0,-100.00,SW,220,7.0,12.0,26,0.00,,,0.08,219.000000,,2013-07-09 01:31:00,
2013-07-08 19:39:00,72.0,35.0,-100.00,SW,220,7.0,12.0,26,0.00,,,0.08,219.000000,,2013-07-09 01:39:00,
2013-07-08 19:49:00,75.0,41.0,-100.00,NNW,336,6.0,10.0,29,0.00,,,0.08,223.000000,,2013-07-09 01:49:00,
2013-07-08 20:28:00,75.0,41.0,-100.00,NNW,336,6.0,10.0,29,0.00,,,0.08,223.000000,,2013-07-09 02:28:00,
2013-07-08 20:42:00,75.0,41.0,-100.00,NNW,336,6.0,10.0,29,0.00,,,0.08,223.000000,,2013-07-09 02:42:00,
2013-07-08 21:21:00,69.0,36.0,-100.00,NW,324,7.0,11.0,30,-99.99,,,0.08,22.000000,,2013-07-09 03:21:00,
2013-07-08 21:31:00,69.0,36.0,-100.00,NW,324,7.0,11.0,30,-99.99,,,0.08,22.000000,,2013-07-09 03:31:00,
2013-07-08 23:11:00,63.0,36.0,-100.00,ESE,112,7.0,11.0,36,-99.99,,,0.08,0.000000,,2013-07-09 05:11:00,
2013-07-08 23:22:00,63.0,36.0,-100.00,ESE,112,7.0,11.0,36,-99.99,,,0.08,0.000000,,2013-07-09 05:22:00,
2013-07-08 23:33:00,63.0,36.0,-100.00,ESE,112,7.0,11.0,36,-99.99,,,0.08,0.000000,,2013-07-09 05:33:00,
2013-07-08 23:42:00,63.0,36.0,-100.00,ESE,112,7.0,11.0,36,-99.99,,,0.08,0.000000,,2013-07-09 05:42:00,